CW3001 Weather Reports


Display with metric or nautical units.
time (UTC)temp
F
wind
direction
speed
MPH
gust
MPH
rain 1hr
in
rain 24hr
in
rain mn
in
humidity
%
barometer
mb
20260508141903 66 63 5.0 13.0 0.00 0.00 0.00 52 1017.0
20260508141402 65 76 6.0 13.0 0.00 0.00 0.00 50 1017.0
20260508140902 64 61 4.0 11.0 0.00 0.00 0.00 52 1017.1
20260508140402 64 47 7.0 11.0 0.00 0.00 0.00 50 1017.1
20260508135902 64 89 5.0 9.0 0.00 0.00 0.00 51 1017.2
20260508135402 65 73 4.0 10.0 0.00 0.00 0.00 51 1017.2
20260508134902 66 27 5.0 10.0 0.00 0.00 0.00 50 1017.2
20260508134403 64 92 5.0 11.0 0.00 0.00 0.00 52 1017.2
20260508133901 64 37 6.0 11.0 0.00 0.00 0.00 52 1017.2
20260508133709 64 123 4.0 9.0 0.00 0.00 0.00 52 1017.4
20260508132910 64 51 6.0 10.0 0.00 0.00 0.00 51 1017.3
20260508132402 64 62 5.0 10.0 0.00 0.00 0.00 50 1017.4
20260508131902 64 54 5.0 10.0 0.00 0.00 0.00 50 1017.3
20260508131402 64 68 6.0 12.0 0.00 0.00 0.00 50 1017.5
20260508130902 64 49 7.0 12.0 0.00 0.00 0.00 53 1017.4
20260508130402 63 90 6.0 10.0 0.00 0.00 0.00 53 1017.4
20260508125902 63 52 3.0 10.0 0.00 0.00 0.00 51 1017.3
20260508125653 63 61 4.0 9.0 0.00 0.00 0.00 53 1017.4
20260508124902 63 72 5.0 10.0 0.00 0.00 0.00 54 1017.4
20260508124417 63 42 5.0 10.0 0.00 0.00 0.00 53 1017.4
20260508123902 64 54 5.0 11.0 0.00 0.00 0.00 53 1017.4
20260508123402 64 34 6.0 11.0 0.00 0.00 0.00 52 1017.4
20260508122903 64 28 5.0 9.0 0.00 0.00 0.00 57 1017.4
20260508122402 64 28 4.0 9.0 0.00 0.00 0.00 53 1017.4
20260508121918 64 24 3.0 9.0 0.00 0.00 0.00 53 1017.4
20260508121401 64 41 4.0 9.0 0.00 0.00 0.00 55 1017.3
20260508120919 64 65 3.0 9.0 0.00 0.00 0.00 51 1017.4
20260508120402 63 106 4.0 9.0 0.00 0.00 0.00 53 1017.4
20260508115902 63 62 1.0 6.0 0.00 0.00 0.00 52 1017.3
20260508115401 63 24 3.0 6.0 0.00 0.00 0.00 55 1017.3
20260508115150 64 72 1.0 6.0 0.00 0.00 0.00 52 1017.3
20260508114651 64 54 1.0 5.0 0.00 0.00 0.00 52 1017.3
20260508114153 64 35 0.0 6.0 0.00 0.00 0.00 52 1017.4
20260508113403 64 106 3.0 9.0 0.00 0.00 0.00 50 1017.4
20260508112903 64 87 3.0 9.0 0.00 0.00 0.00 53 1017.4
20260508112404 64 62 4.0 9.0 0.00 0.00 0.00 52 1017.4
20260508111903 64 104 6.0 9.0 0.00 0.00 0.00 54 1017.5
20260508111402 64 148 3.0 6.0 0.00 0.00 0.00 52 1017.5
20260508110901 64 45 1.0 5.0 0.00 0.00 0.00 54 1017.5
20260508110403 64 99 1.0 7.0 0.00 0.00 0.00 52 1017.5
20260508105903 64 124 2.0 7.0 0.00 0.00 0.00 50 1017.4
20260508105432 64 166 4.0 6.0 0.00 0.00 0.00 52 1017.5
20260508104917 63 102 2.0 6.0 0.00 0.00 0.00 60 1017.5
20260508104404 63 38 3.0 6.0 0.00 0.00 0.00 57 1017.6
20260508103906 64 34 3.0 6.0 0.00 0.00 0.00 57 1017.5
20260508103403 63 24 4.0 5.0 0.00 0.00 0.00 58 1017.5
20260508102902 63 28 2.0 5.0 0.00 0.00 0.00 61 1017.5
20260508102655 63 47 2.0 5.0 0.00 0.00 0.00 61 1017.6
20260508101902 63 92 2.0 6.0 0.00 0.00 0.00 59 1017.6
20260508101654 63 73 3.0 6.0 0.00 0.00 0.00 58 1017.5
20260508100902 63 47 1.0 5.0 0.00 0.00 0.00 61 1017.6
20260508100706 62 55 3.0 6.0 0.00 0.00 0.00 63 1017.6
20260508100152 62 65 2.0 6.0 0.00 0.00 0.00 62 1017.6
20260508095403 62 32 1.0 5.0 0.00 0.00 0.00 66 1017.7
20260508094914 62 76 2.0 5.0 0.00 0.00 0.00 66 1017.7
20260508094403 61 37 3.0 4.0 0.00 0.00 0.00 65 1017.7
20260508093902 61 62 2.0 4.0 0.00 0.00 0.00 66 1017.7
20260508093401 61 4 2.0 5.0 0.00 0.00 0.00 68 1017.7
20260508092903 60 42 3.0 5.0 0.00 0.00 0.00 69 1017.6
20260508092402 60 49 3.0 5.0 0.00 0.00 0.00 70 1017.6
20260508091902 59 68 3.0 5.0 0.00 0.00 0.00 71 1017.6
20260508091402 59 49 2.0 4.0 0.00 0.00 0.00 70 1017.7
20260508090941 58 66 2.0 4.0 0.00 0.00 0.00 74 1017.8
20260508090927 59 45 3.0 4.0 0.00 0.00 0.00 70 1017.7
20260508085902 58 38 0.0 3.0 0.00 0.00 0.00 73 1017.7
20260508085403 58 68 0.0 4.0 0.00 0.00 0.00 72 1017.8
20260508084903 58 68 2.0 4.0 0.00 0.00 0.00 73 1017.7
20260508084401 58 113 3.0 4.0 0.00 0.00 0.00 74 1017.8
20260508083901 57 85 0.0 4.0 0.00 0.00 0.00 74 1017.8
20260508083653 57 86 2.0 4.0 0.00 0.00 0.00 75 1017.7
20260508083215 57 89 2.0 3.0 0.00 0.00 0.00 75 1017.8
20260508082547 56 94 0.0 3.0 0.00 0.00 0.00 75 1017.7
20260508082503 56 90 0.0 0.0 0.00 0.00 0.00 75 1017.7
20260508082231 56 97 0.0 1.0 0.00 0.00 0.00 76 1017.6
20260508080903 56 94 2.0 4.0 0.00 0.00 0.00 75 1017.6
20260508080402 56 102 1.0 4.0 0.00 0.00 0.00 76 1017.7
20260508080156 56 104 2.0 4.0 0.00 0.00 0.00 78 1017.6
20260508075403 56 85 0.0 3.0 0.00 0.00 0.00 77 1017.6
20260508075153 55 89 2.0 4.0 0.00 0.00 0.00 78 1017.6
20260508074402 55 89 2.0 4.0 0.00 0.00 0.00 78 1017.5
20260508073901 55 75 2.0 4.0 0.00 0.00 0.00 79 1017.5
20260508073401 55 80 2.0 3.0 0.00 0.00 0.00 79 1017.5
20260508072903 54 58 1.0 3.0 0.00 0.00 0.00 79 1017.5
20260508072403 54 65 0.0 3.0 0.00 0.00 0.00 80 1017.6
20260508071904 54 82 0.0 5.0 0.00 0.00 0.00 80 1017.4
20260508071513 54 75 2.0 4.0 0.00 0.00 0.00 80 1017.4
20260508071445 54 58 2.0 5.0 0.00 0.00 0.00 80 1017.4
20260508070749 53 48 2.0 4.0 0.00 0.00 0.00 81 1017.5
20260508065919 53 47 2.0 4.0 0.00 0.00 0.00 81 1017.4
20260508065406 53 61 3.0 5.0 0.00 0.00 0.00 81 1017.3
20260508064902 53 66 3.0 5.0 0.00 0.00 0.00 81 1017.3
20260508064403 53 66 2.0 5.0 0.00 0.00 0.00 81 1017.2
20260508063902 53 44 3.0 5.0 0.00 0.00 0.00 81 1017.2
20260508063401 53 52 2.0 5.0 0.00 0.00 0.00 82 1017.2
20260508062903 53 82 2.0 4.0 0.00 0.00 0.00 82 1017.2
20260508062405 52 78 2.0 5.0 0.00 0.00 0.00 82 1017.2
20260508061902 52 97 2.0 5.0 0.00 0.00 0.00 82 1017.1
20260508061402 52 86 4.0 5.0 0.00 0.00 0.00 82 1017.1
20260508060902 52 97 0.0 5.0 0.00 0.00 0.00 82 1017.0
20260508060654 52 97 2.0 5.0 0.00 0.00 0.00 82 1017.1
20260508055903 52 97 2.0 5.0 0.00 0.00 0.00 82 1017.0
20260508055415 52 100 2.0 5.0 0.00 0.00 0.00 82 1016.9
20260508054902 51 59 3.0 5.0 0.00 0.00 0.00 82 1017.0
20260508054417 51 93 2.0 5.0 0.00 0.00 0.00 82 1017.0
20260508053905 51 86 2.0 4.0 0.00 0.00 0.00 83 1017.0
20260508053406 51 75 3.0 4.0 0.00 0.00 0.00 83 1017.0
20260508052905 51 76 2.0 3.0 0.00 0.00 0.00 83 1016.9
20260508052403 51 96 1.0 3.0 0.00 0.00 0.00 83 1016.9
20260508051904 51 92 0.0 3.0 0.00 0.00 0.00 83 1016.9
20260508051403 51 90 0.0 5.0 0.00 0.00 0.00 83 1016.8
20260508050903 51 89 1.0 5.0 0.00 0.00 0.00 83 1016.8
20260508050403 51 71 2.0 4.0 0.00 0.00 0.00 83 1016.8
20260508045903 51 86 1.0 3.0 0.00 0.00 0.00 83 1016.8
20260508045404 51 86 0.0 4.0 0.00 0.00 0.00 83 1016.9
20260508045153 51 87 3.0 4.0 0.00 0.00 0.00 83 1016.7
20260508044402 51 83 3.0 4.0 0.00 0.00 0.00 83 1016.7
20260508043902 50 69 0.0 0.0 0.00 0.00 0.00 83 1016.7
20260508043647 50 69 0.0 3.0 0.00 0.00 0.00 83 1016.6
20260508042902 50 69 0.0 3.0 0.00 0.00 0.00 83 1016.7
20260508042402 50 89 1.0 3.0 0.00 0.00 0.00 83 1016.7
20260508041912 50 94 1.0 4.0 0.00 0.00 0.00 84 1016.6
20260508041402 50 96 2.0 4.0 0.00 0.00 0.00 84 1016.6
20260508040901 50 92 2.0 4.0 0.00 0.00 0.00 84 1016.6
20260508040401 50 71 0.0 0.0 0.00 0.00 0.00 84 1016.6
20260508040146 50 71 0.0 0.0 0.00 0.00 0.00 84 1016.6
20260508035401 50 72 0.0 3.0 0.00 0.00 0.00 84 1016.6
20260508035138 50 71 0.0 3.0 0.00 0.00 0.00 84 1016.6
20260508034402 50 69 0.0 2.0 0.00 0.00 0.00 85 1016.5
20260508033901 50 63 0.0 1.0 0.00 0.00 0.00 85 1016.5
20260508033413 50 65 0.0 0.0 0.00 0.00 0.00 85 1016.5
20260508032904 50 65 0.0 0.0 0.00 0.00 0.00 86 1016.6
20260508032402 50 65 0.0 0.0 0.00 0.00 0.00 86 1016.5
20260508032154 50 65 0.0 0.0 0.00 0.00 0.00 85 1016.5
20260508031402 50 65 0.0 0.0 0.00 0.00 0.00 85 1016.5
20260508030902 50 65 0.0 0.0 0.00 0.00 0.00 86 1016.4
20260508030647 50 61 0.0 0.0 0.00 0.00 0.00 86 1016.4
20260508025904 50 61 0.0 0.0 0.00 0.00 0.00 85 1016.4
20260508025401 50 61 0.0 0.0 0.00 0.00 0.00 85 1016.5
20260508024902 50 61 0.0 0.0 0.00 0.00 0.00 85 1016.5
20260508024403 50 61 0.0 0.0 0.00 0.00 0.00 85 1016.5
20260508023901 50 61 0.0 0.0 0.00 0.00 0.00 85 1016.5
20260508023402 50 61 0.0 0.0 0.00 0.00 0.00 85 1016.4
20260508022903 50 61 0.0 0.0 0.00 0.00 0.00 85 1016.6
20260508022403 50 61 0.0 0.0 0.00 0.00 0.00 85 1016.5
20260508021902 50 61 0.0 0.0 0.00 0.00 0.00 85 1016.6
20260508021402 50 61 0.0 0.0 0.00 0.00 0.00 84 1016.4
20260508020903 50 61 0.0 0.0 0.00 0.00 0.00 83 1016.5
20260508020402 50 61 0.0 0.0 0.00 0.00 0.00 83 1016.4
20260508015901 51 61 0.0 0.0 0.00 0.00 0.00 83 1016.4
20260508015403 51 61 0.0 0.0 0.00 0.00 0.00 83 1016.4
20260508014902 51 61 0.0 0.0 0.00 0.00 0.00 83 1016.4
20260508014403 51 61 0.0 0.0 0.00 0.00 0.00 83 1016.5
20260508014222 51 61 0.0 0.0 0.00 0.00 0.00 84 1016.5
20260508013402 51 59 0.0 0.0 0.00 0.00 0.00 84 1016.5
20260508012904 51 61 0.0 0.0 0.00 0.00 0.00 82 1016.5
20260508012438 51 61 0.0 0.0 0.00 0.00 0.00 82 1016.6
20260508012426 51 61 0.0 0.0 0.00 0.00 0.00 81 1016.5
20260508011644 51 61 0.0 0.0 0.00 0.00 0.00 82 1016.5
20260508010901 52 61 0.0 0.0 0.00 0.00 0.00 82 1016.5
20260508010403 52 61 0.0 0.0 0.00 0.00 0.00 83 1016.5
20260508010220 52 61 0.0 0.0 0.00 0.00 0.00 83 1016.4
20260508005403 52 61 0.0 1.0 0.00 0.00 0.00 82 1016.5
20260508004902 52 59 0.0 2.0 0.00 0.00 0.00 82 1016.5
20260508004402 52 61 0.0 3.0 0.00 0.00 0.00 82 1016.6
20260508003902 52 61 2.0 4.0 0.00 0.00 0.00 84 1016.6
20260508003404 52 62 2.0 4.0 0.00 0.00 0.00 86 1016.6
20260508002902 52 62 0.0 0.0 0.00 0.00 0.00 86 1016.8
20260508002402 52 62 0.0 0.0 0.00 0.00 0.00 86 1016.7
20260508001902 52 62 0.0 0.0 0.00 0.00 0.00 85 1016.6
20260508001402 52 62 0.0 0.0 0.00 0.00 0.00 85 1016.7
20260508000901 52 62 0.0 0.0 0.00 0.00 0.00 85 1016.7
20260508000402 52 62 0.0 0.0 0.00 0.00 0.00 85 1016.7
20260507235903 52 62 0.0 0.0 0.00 0.00 0.00 85 1016.7
20260507235416 52 62 0.0 0.0 0.00 0.00 0.00 85 1016.7
20260507234904 52 62 0.0 0.0 0.00 0.00 0.00 85 1016.7
20260507234701 52 62 0.0 0.0 0.00 0.00 0.00 84 1016.8
20260507233902 52 62 0.0 0.0 0.00 0.00 0.00 84 1016.8
20260507233401 52 62 0.0 0.0 0.00 0.00 0.00 84 1016.9
20260507232903 52 62 0.0 0.0 0.00 0.00 0.00 84 1016.9
20260507232402 52 62 0.0 0.0 0.00 0.00 0.00 84 1016.8
20260507231902 52 62 0.0 0.0 0.00 0.00 0.00 84 1016.9
20260507231402 52 62 0.0 0.0 0.00 0.00 0.00 84 1017.0
20260507230913 52 62 0.0 0.0 0.00 0.00 0.00 83 1016.9
20260507230402 52 62 0.0 0.0 0.00 0.00 0.00 81 1016.9
20260507225903 52 62 0.0 0.0 0.00 0.00 0.00 81 1017.0
20260507225403 52 62 0.0 0.0 0.00 0.00 0.00 81 1017.0
20260507224903 52 62 0.0 0.0 0.00 0.00 0.00 82 1016.9
20260507224402 52 62 0.0 0.0 0.00 0.00 0.00 82 1017.0
20260507224148 52 62 0.0 0.0 0.00 0.00 0.00 81 1016.9
20260507223406 52 62 0.0 0.0 0.00 0.00 0.00 80 1017.0
20260507222903 53 62 0.0 0.0 0.00 0.00 0.00 80 1017.1
20260507222404 53 62 0.0 0.0 0.00 0.00 0.00 80 1017.0
20260507221901 53 62 0.0 0.0 0.00 0.00 0.00 80 1016.9
20260507221422 53 62 0.0 0.0 0.00 0.00 0.00 80 1017.0
20260507220902 53 62 0.0 0.0 0.00 0.00 0.00 80 1017.0
20260507220719 53 62 0.0 0.0 0.00 0.00 0.00 80 1016.9
20260507215902 53 62 0.0 0.0 0.00 0.00 0.00 80 1016.9
20260507215402 53 62 0.0 0.0 0.00 0.00 0.00 78 1016.9
20260507214903 53 62 0.0 0.0 0.00 0.00 0.00 78 1016.9
20260507214403 53 62 0.0 0.0 0.00 0.00 0.00 78 1016.9
20260507213901 53 62 0.0 0.0 0.00 0.00 0.00 78 1016.9
20260507213401 53 62 0.0 0.0 0.00 0.00 0.00 78 1016.9
20260507212905 53 62 0.0 0.0 0.00 0.00 0.00 77 1016.8
20260507212402 53 62 0.0 0.0 0.00 0.00 0.00 76 1016.8
20260507212205 53 62 0.0 0.0 0.00 0.00 0.00 76 1016.9
20260507211402 53 62 0.0 0.0 0.00 0.00 0.00 76 1016.9
20260507210902 53 62 0.0 0.0 0.00 0.00 0.00 76 1016.8
20260507210401 54 62 0.0 0.0 0.00 0.00 0.00 76 1016.8
20260507205902 54 62 0.0 0.0 0.00 0.00 0.00 76 1016.8
20260507205701 54 62 0.0 0.0 0.00 0.00 0.00 75 1016.7
20260507204902 54 62 0.0 0.0 0.00 0.00 0.00 74 1016.8
20260507204403 54 62 0.0 0.0 0.00 0.00 0.00 74 1016.8
20260507203902 54 62 0.0 0.0 0.00 0.00 0.00 74 1016.8
20260507203643 54 62 0.0 0.0 0.00 0.00 0.00 73 1016.8
20260507202901 54 62 0.0 0.0 0.00 0.00 0.00 73 1016.7
20260507202419 54 62 0.0 0.0 0.00 0.00 0.00 73 1016.7
20260507201901 54 62 0.0 0.0 0.00 0.00 0.00 72 1016.7
20260507201724 55 62 0.0 0.0 0.00 0.00 0.00 71 1016.4
20260507201717 54 62 0.0 0.0 0.00 0.00 0.00 71 1016.5
20260507200402 55 62 0.0 0.0 0.00 0.00 0.00 73 1016.4
20260507195901 55 62 0.0 0.0 0.00 0.00 0.00 73 1016.4
20260507195402 55 62 0.0 0.0 0.00 0.00 0.00 73 1016.4
20260507194901 55 62 0.0 0.0 0.00 0.00 0.00 71 1016.3
20260507194401 56 62 0.0 0.0 0.00 0.00 0.00 71 1016.3
20260507193901 56 62 0.0 0.0 0.00 0.00 0.00 70 1016.3
20260507193401 56 62 0.0 0.0 0.00 0.00 0.00 69 1016.3
20260507192900 56 62 0.0 0.0 0.00 0.00 0.00 68 1016.3
20260507192714 56 62 0.0 0.0 0.00 0.00 0.00 68 1016.2
20260507191903 56 62 0.0 0.0 0.00 0.00 0.00 70 1016.3
20260507191716 57 62 0.0 0.0 0.00 0.00 0.00 69 1016.1
20260507190901 57 62 0.0 0.0 0.00 0.00 0.00 69 1016.2
20260507190359 57 62 0.0 0.0 0.00 0.00 0.00 67 1016.1
20260507185859 57 62 0.0 0.0 0.00 0.00 0.00 68 1016.2
20260507185359 58 62 0.0 0.0 0.00 0.00 0.00 68 1016.2
20260507184859 58 62 0.0 0.0 0.00 0.00 0.00 66 1016.2
20260507184400 58 62 0.0 0.0 0.00 0.00 0.00 60 1016.1
20260507183859 58 62 0.0 0.0 0.00 0.00 0.00 58 1016.1
20260507183359 58 62 0.0 0.0 0.00 0.00 0.00 58 1016.0
20260507182859 58 62 0.0 0.0 0.00 0.00 0.00 58 1016.2
20260507182358 58 62 0.0 0.0 0.00 0.00 0.00 58 1016.1
20260507181917 58 62 0.0 0.0 0.00 0.00 0.00 58 1016.1
20260507181358 58 62 0.0 0.0 0.00 0.00 0.00 57 1016.1
20260507180859 58 62 0.0 0.0 0.00 0.00 0.00 58 1016.1
20260507180357 58 62 0.0 0.0 0.00 0.00 0.00 56 1016.0
20260507175858 58 62 0.0 0.0 0.00 0.00 0.00 55 1016.1
20260507175358 59 62 0.0 0.0 0.00 0.00 0.00 56 1016.0
20260507174900 59 62 0.0 1.0 0.00 0.00 0.00 59 1016.1
20260507174505 59 63 1.0 3.0 0.00 0.00 0.00 55 1016.0
20260507174500 59 63 1.0 1.0 0.00 0.00 0.00 54 1016.1
20260507174439 59 63 0.0 3.0 0.00 0.00 0.00 57 1016.1
20260507173146 59 63 0.0 2.0 0.00 0.00 0.00 55 1016.0
20260507172358 59 63 0.0 2.0 0.00 0.00 0.00 54 1015.9
20260507171857 59 63 1.0 2.0 0.00 0.00 0.00 56 1016.1
20260507171358 59 61 0.0 3.0 0.00 0.00 0.00 56 1016.1
20260507170857 59 61 2.0 3.0 0.00 0.00 0.00 54 1016.0
20260507170357 59 66 0.0 3.0 0.00 0.00 0.00 56 1016.0
20260507170138 59 66 2.0 4.0 0.00 0.00 0.00 56 1016.0
20260507165358 59 66 2.0 4.0 0.00 0.00 0.00 55 1016.0
20260507164856 59 71 0.0 0.0 0.00 0.00 0.00 56 1016.1
20260507164356 59 71 0.0 0.0 0.00 0.00 0.00 54 1016.0
20260507163856 59 71 0.0 3.0 0.00 0.00 0.00 53 1016.0
20260507163356 60 71 0.0 4.0 0.00 0.00 0.00 54 1015.9
20260507162856 60 71 2.0 4.0 0.00 0.00 0.00 54 1016.1
20260507162648 60 69 1.0 4.0 0.00 0.00 0.00 54 1016.0
20260507161855 60 62 0.0 3.0 0.00 0.00 0.00 54 1016.0
20260507161646 60 61 0.0 4.0 0.00 0.00 0.00 54 1016.0
20260507160855 60 59 1.0 5.0 0.00 0.00 0.00 54 1015.9
20260507160406 60 78 2.0 5.0 0.00 0.00 0.00 54 1016.1
20260507155856 60 97 2.0 3.0 0.00 0.00 0.00 53 1016.1
20260507155355 60 100 0.0 2.0 0.00 0.00 0.00 52 1015.9
20260507154855 60 99 0.0 4.0 0.00 0.00 0.00 54 1016.0
20260507154354 60 99 2.0 4.0 0.00 0.00 0.00 54 1015.9
20260507153858 60 116 2.0 3.0 0.00 0.00 0.00 54 1016.0
20260507153355 60 78 0.0 4.0 0.00 0.00 0.00 53 1015.9
20260507152855 60 72 0.0 5.0 0.00 0.00 0.00 53 1015.9
20260507152354 60 61 2.0 5.0 0.00 0.00 0.00 53 1015.9
20260507151854 60 38 1.0 5.0 0.00 0.00 0.00 52 1015.9
20260507151354 60 80 3.0 5.0 0.00 0.00 0.00 53 1015.8
20260507150853 60 96 3.0 5.0 0.00 0.00 0.00 52 1015.8
20260507150354 60 61 1.0 4.0 0.00 0.00 0.00 56 1015.8
20260507145852 60 317 0.0 3.0 0.00 0.00 0.00 52 1015.8
20260507145408 60 51 1.0 4.0 0.00 0.00 0.00 53 1015.7
20260507144852 60 20 2.0 6.0 0.00 0.00 0.00 53 1015.7
20260507144651 60 44 3.0 6.0 0.00 0.00 0.00 53 1015.8
20260507143853 60 6 0.0 3.0 0.00 0.00 0.00 52 1015.7
20260507143355 60 6 1.0 5.0 0.00 0.00 0.00 53 1015.7
20260507142853 60 10 2.0 5.0 0.00 0.00 0.00 53 1015.8
20260507142354 60 44 0.0 4.0 0.00 0.00 0.00 51 1015.7